TimeEDT,TemperatureF,Dew PointF,Humidity,Sea Level PressureIn,VisibilityMPH,Wind Direction,Wind SpeedMPH,Gust SpeedMPH,PrecipitationIn,Events,Conditions,WindDirDegrees,DateUTC
12:54 AM,57.9,53.1,84,30.22,10.0,Calm,Calm,-,N/A,,Clear,0,2013-06-22 04:54:00
1:54 AM,57.0,53.1,87,30.22,10.0,Calm,Calm,-,N/A,,Clear,0,2013-06-22 05:54:00
2:54 AM,55.9,53.1,90,30.22,10.0,Calm,Calm,-,N/A,,Clear,0,2013-06-22 06:54:00
3:54 AM,55.9,53.1,90,30.21,10.0,Calm,Calm,-,N/A,,Clear,0,2013-06-22 07:54:00
4:54 AM,55.9,53.1,90,30.20,7.0,Calm,Calm,-,N/A,,Clear,0,2013-06-22 08:54:00
5:54 AM,55.9,53.1,90,30.21,8.0,Calm,Calm,-,N/A,,Clear,0,2013-06-22 09:54:00
6:54 AM,60.1,57.0,90,30.19,9.0,Calm,Calm,-,N/A,,Clear,0,2013-06-22 10:54:00
7:54 AM,64.0,57.9,80,30.20,10.0,Calm,Calm,-,N/A,,Clear,0,2013-06-22 11:54:00
8:54 AM,71.1,61.0,70,30.21,10.0,Calm,Calm,-,N/A,,Mostly Cloudy,0,2013-06-22 12:54:00
9:54 AM,75.0,62.1,64,30.21,10.0,Calm,Calm,-,N/A,,Scattered Clouds,0,2013-06-22 13:54:00
10:54 AM,75.0,63.0,66,30.20,10.0,Calm,Calm,-,N/A,,Overcast,0,2013-06-22 14:54:00
11:54 AM,79.0,62.1,56,30.19,10.0,SSW,9.2,-,N/A,,Clear,210,2013-06-22 15:54:00
12:54 PM,81.0,60.1,49,30.18,10.0,Variable,5.8,-,N/A,,Mostly Cloudy,0,2013-06-22 16:54:00
1:54 PM,82.0,60.1,47,30.17,10.0,Variable,5.8,16.1,N/A,,Partly Cloudy,0,2013-06-22 17:54:00
2:54 PM,82.0,59.0,45,30.14,10.0,Variable,4.6,-,N/A,,Clear,0,2013-06-22 18:54:00
3:54 PM,82.0,60.1,47,30.13,10.0,Variable,4.6,-,N/A,,Scattered Clouds,0,2013-06-22 19:54:00
4:54 PM,81.0,61.0,50,30.12,10.0,SW,6.9,-,N/A,,Partly Cloudy,220,2013-06-22 20:54:00
5:54 PM,81.0,62.1,52,30.10,10.0,South,6.9,-,N/A,,Clear,190,2013-06-22 21:54:00
6:54 PM,78.1,61.0,56,30.09,10.0,SSW,4.6,-,N/A,,Clear,200,2013-06-22 22:54:00
7:54 PM,77.0,60.1,56,30.10,10.0,WSW,3.5,-,N/A,,Scattered Clouds,240,2013-06-22 23:54:00
8:54 PM,75.9,61.0,60,30.09,10.0,Calm,Calm,-,N/A,,Clear,0,2013-06-23 00:54:00
9:54 PM,73.0,62.1,68,30.11,10.0,Calm,Calm,-,N/A,,Mostly Cloudy,0,2013-06-23 01:54:00
10:54 PM,75.9,61.0,60,30.12,10.0,South,6.9,-,N/A,,Overcast,180,2013-06-23 02:54:00
11:54 PM,72.0,61.0,68,30.12,10.0,Calm,Calm,-,N/A,,Partly Cloudy,0,2013-06-23 03:54:00